STARLINK-11518, 62462

Orbit data source: Space-Track

STARLINK-11518, 62462 is a payload satellite owned by SpaceX/Seattle (US) in LEO that was launched on Tue, 31 Dec 2024 UTC via an FALCON 9 launch vehicle from the Air Force Eastern Test Range (AFETR). Payload-class satellites include a variety of spacecraft equipped with specific instruments for various scientific and technological missions. These include communications satellites like Starlink; space stations such as the ISS; scientific satellites like the Hubble; Earth observation satellites from companies like Planet Labs, Umbra, and HawkEye 360; GPS; miniature CubeSats for education and research; and military/defense satellites.

Loading next visibility...
Identifier
62462, 2024-254A
Orbit
LEO
Country
Flag of USUS
Related business
Manufacturer
SpaceX/Seattle
Mission
Operational Commercial Communications
Bus & Motor
STARLINK V2MD, Unknown motor
Mass
960 kg wet, ~910 kg dry
Launch date (UTC)
2024-12-31 (1 year ago)
Launch vehicle
FALCON 9
Launch site
Air Force Eastern Test Range (AFETR)
Object type
Payload
Rocket body
Debris
Shape & HBR
Box + 2 Pan, 18.1 m
Radar Cross Section
36.964 m², Large (>1 m²)

Expand to show TLE details & history
Last TLE update: 2 days ago

TLE from 2 days ago
0 STARLINK-11518
1 62462U 24254A   26170.46584192  .00202094  00000-0  15365-2 0  9991
2 62462  43.0019 329.8998 0002554 261.4585  98.5994 15.70899624 85417
Epoch: 2026-06-19T11:10Z
TLE epoch observation values (Epoch: 2026-06-19T11:10:48.741Z)
Latitude
0.00001°
Longitude
-105.4977°
Altitude
356.354 km
Speed
7.697 km/s
True Right ascension
21h 59m 35s
True Declination
0° 00' 00"
Sunlit
Object was in full shadow at epoch
Visualization orbit readout
Latitude
Unknown
Longitude
Unknown
Altitude
Unknown
Speed
Unknown
Apparent Right ascension
Unknown
Apparent Declination
Unknown
Sunlit
N/A
Visualization observer readout
Local Sidereal Time
10:20:26
Azimuth
Unknown
Elevation
Unknown
Doppler factor
Unknown
Orbital elements
Apogee altitude
360.026 km
Perigee altitude
356.585 km
Semi-major axis
6,736.443 km
Eccentricity
0.00026
Inclination
43.0019°
RAAN
329.8998°
Arg. of periapsis
261.4585°
True anomaly
98.62834°
Mean anomaly
98.5994°
Eccentric anomaly
98.61387°
Mean motion
3.92552 °/min
Orbital period
91.71 mins
BSTAR
0.0015365
Loading maneuver chart data...
Computing Atmospheric mass density...
Loading historical data...
Loading historical data...
Loading historical data...
Loading historical data...
Loading historical data...
Loading historical data...
Loading historical data...

Documentation

Showing up to 5 results
|